Regional Weather Roundup
Issued by NWS

Home | Current Version | Previous Version | Graphics & Text | Print | Product List | Glossary On
Versions: 1 2 3 4 5 6 7 8 9 10 11 12 13 14 15 16 17 18 19 20 21 22 23 24 25 26 27 28 29 30 31 32 33 34 35 36 37 38 39 40 41 42 43 44 45 46 47 48 49 50
000
ASUS45 KPSR 241210
RWRAZ

ARIZONA REGIONAL HOURLY WEATHER ROUNDUP
NATIONAL WEATHER SERVICE PHOENIX AZ
500 AM MST MON NOV 24 2014

NOTE: FAIR INDICATES FEW OR NO CLOUDS BELOW 12,000 FEET WITH NO
SIGNIFICANT WEATHER AND/OR OBSTRUCTIONS TO VISIBILITY.

AZZ001>003-036-241300-
NORTHWEST ARIZONA

CITY           SKY/WX    TMP DP  RH WIND       PRES   REMARKS
BULLHEAD CITY  CLEAR     48  23  37 CALM      30.24S
KINGMAN        CLEAR     29   7  39 CALM      30.24F
6HR MIN TEMP:  26; 6HR MAX TEMP:  36;

$$

AZZ004>008-015-016-018-241300-
NORTH CENTRAL ARIZONA

CITY           SKY/WX    TMP DP  RH WIND       PRES   REMARKS
GRAND CANYON   PTCLDY     5  -7  57 CALM      30.22F
6HR MIN TEMP:   5; 6HR MAX TEMP:  17;

PRESCOTT       CLEAR     24   4  42 SW5       30.23F WCI  18
6HR MIN TEMP:  24; 6HR MAX TEMP:  34;

FLAGSTAFF      CLEAR     29  -4  24 VRB5      30.19F WCI  24
6HR MIN TEMP:  13; 6HR MAX TEMP:  29;

PAYSON         CLEAR     34  -6  18 CALM      30.21S
$$

AZZ009>014-017-241300-
NORTHEAST ARIZONA

CITY           SKY/WX    TMP DP  RH WIND       PRES   REMARKS
WINSLOW        PTCLDY    16  -5  39 CALM      30.22F
6HR MIN TEMP:  14; 6HR MAX TEMP:  23;

SAINT JOHNS    MOCLDY    20   1  43 CALM      30.19S
6HR MIN TEMP:  18; 6HR MAX TEMP:  24;

SHOW LOW       FLURRIES  14  -2  48 S6        30.22S WCI   5
$$

AZZ023-241300-
GREATER PHOENIX AREA

CITY           SKY/WX    TMP DP  RH WIND       PRES   REMARKS
PHOENIX        PTCLDY    46  20  35 E5        30.15R
6HR MIN TEMP:  45; 6HR MAX TEMP:  56;

BUCKEYE          N/A     45   1  16 N8        30.17S
LUKE AFB       CLEAR     41  15  34 N8        30.16S
6HR MIN TEMP:  40; 6HR MAX TEMP:  51;

DEER VALLEY    CLEAR     40   7  25 CALM      30.15S
6HR MIN TEMP:  40; 6HR MAX TEMP:  54;

SCOTTSDALE     CLEAR     43  15  32 CALM      30.17S
6HR MIN TEMP:  42; 6HR MAX TEMP:  54;

MESA-GATEWAY   PTCLDY    36  12  38 E6        30.17S WCI  31
$$

AZZ027-028-241300-
SOUTHWEST MARICOPA COUNTY AND PINAL COUNTY

CITY           SKY/WX    TMP DP  RH WIND       PRES   REMARKS
CASA GRANDE    CLEAR     39   1  20 CALM      30.16F
6HR MIN TEMP:  36; 6HR MAX TEMP:  48;

$$

AZZ503-504-507>509-241300-
SOUTHEAST ARIZONA

CITY           SKY/WX    TMP DP  RH WIND       PRES   REMARKS
TUCSON         CLEAR     37   4  25 S9        30.17S WCI  30
6HR MIN TEMP:  36; 6HR MAX TEMP:  48;

DAVIS-MONTHAN  CLEAR     38   2  22 SE8       30.15S WCI  32
6HR MIN TEMP:  37; 6HR MAX TEMP:  53;

NOGALES        CLEAR     35   9  33 VRB3      30.15S
6HR MIN TEMP:  34; 6HR MAX TEMP:  50;

SIERRA VISTA   PTCLDY    33  -1  23 CALM      30.17F
6HR MIN TEMP:  32; 6HR MAX TEMP:  47;

DOUGLAS        PTCLDY    24   1  36 N5        30.17F WCI  18
6HR MIN TEMP:  22; 6HR MAX TEMP:  39;

SAFFORD        CLEAR     29   0  28 SE5       30.16S WCI  24
6HR MIN TEMP:  28; 6HR MAX TEMP:  40;

$$

AZZ020-021-025-026-031-241300-
SOUTHWEST ARIZONA

CITY           SKY/WX    TMP DP  RH WIND       PRES   REMARKS
YUMA           PTCLDY    55  11  17 N8        30.16S
6HR MIN TEMP:  53; 6HR MAX TEMP:  61;

$$

CAZ031-033-041-043-047-048-061-241300-
SOUTHERN CALIFORNIA

CITY           SKY/WX    TMP DP  RH WIND       PRES   REMARKS
DOWNTOWN L.A.  PTCLDY    55  19  24 CALM      30.14S
6HR MIN TEMP:  54; 6HR MAX TEMP:  63;

L.A. AIRPORT   CLEAR     61  13  15 NE7       30.14S
6HR MIN TEMP:  58; 6HR MAX TEMP:  67;

SAN DIEGO      PTCLDY    55  27  34 CALM      30.13F
6HR MIN TEMP:  54; 6HR MAX TEMP:  63;

BURBANK        CLEAR     55  11  17 NW5       30.15S
6HR MIN TEMP:  53; 6HR MAX TEMP:  60;

ONTARIO        MOCLDY    50  22  33 N6        30.15S
6HR MIN TEMP:  45; 6HR MAX TEMP:  58;

RIVERSIDE      CLEAR     49  20  31 E5        30.16F
6HR MIN TEMP:  49; 6HR MAX TEMP:  58;

PALM SPRINGS   CLEAR     51  16  24 CALM      30.20S
6HR MIN TEMP:  51; 6HR MAX TEMP:  63;

EL CENTRO NAS  MOCLDY    43  22  43 W8        30.18S
6HR MIN TEMP:  43; 6HR MAX TEMP:  53;

IMPERIAL       MOCLDY    48  24  39 W6        30.17F
6HR MIN TEMP:  45; 6HR MAX TEMP:  51;

BLYTHE         CLEAR     46  10  23 SW5       30.19S
6HR MIN TEMP:  46; 6HR MAX TEMP:  59;

NEEDLES        CLEAR     44   9  23 SW6       30.22S
6HR MIN TEMP:  44; 6HR MAX TEMP:  55;

$$

NVZ020-UTZ003-241300-
SOUTHERN NEVADA-UTAH

CITY           SKY/WX    TMP DP  RH WIND       PRES   REMARKS
LAS VEGAS      PTCLDY    41   9  26 S10       30.22S
6HR MIN TEMP:  41; 6HR MAX TEMP:  50;

SALT LAKE CITY CLOUDY    38  22  52 NW7       30.20R WCI  33
6HR MIN TEMP:  35; 6HR MAX TEMP:  38;

$$

NMZ009-TXZ055-241300-
NEW MEXICO-WEST TEXAS

CITY           SKY/WX    TMP DP  RH WIND       PRES   REMARKS
ALBUQUERQUE    PTCLDY    30   9  41 VRB6      30.13R WCI  24
6HR MIN TEMP:  29; 6HR MAX TEMP:  36;

EL PASO        PTCLDY    41   2  19 N6        30.12S
6HR MIN TEMP:  39; 6HR MAX TEMP:  50;

$$


........................KEY........................
SKY/WX - SKY CONDITION/WEATHER
TMP    - TEMPERATURE IN FAHRENHEIT
DP     - DEW POINT IN FAHRENHEIT
RH     - RELATIVE HUMIDITY IN PERCENT
WIND   - DIRECTION AND SPEED IN MILES PER HOUR (MPH)
VRB    - VARIABLE WIND DIRECTION
PRES   - MEAN SEA LEVEL PRESSURE IN INCHES OF MERCURY
         F - FALLING PRESSURE   R - RISING PRESSURE
         S - STEADY PRESSURE
VSB    - VISIBILITY IN MILES
HX     - HEAT INDEX IN FAHRENHEIT
WCI    - WIND CHILL INDEX IN FAHRENHEIT
TC     - TEMPERATURE IN CELSIUS WHICH IS ALSO KNOWN AS
         TEMPERATURE IN CENTIGRADE
AFB    - AIR FORCE BASE
         LUKE AFB IS LUKE AIR FORCE BASE
         DAVIS-MONTHAN IS DAVIS-MONTHAN AIR FORCE BASE
NAS    - NAVAL AIR STATION
         EL CENTRO NAS IS EL CENTRO NAVAL AIR STATION
N/A    - NOT AVAILABLE



USA.gov is the U.S. government's official web portal to all federal, state and local government web resources and services.